| time (UTC) | temp F | wind direction | speed knots | gust knots | rain 1hr in | rain 24hr in | rain mn in | humidity % | barometer mb |
| 20260508083004 | 69 | 231 | 4.3 | 8.7 | 0.00 | 0.00 | 0.00 | 45 | 1014.9 |
| 20260508082804 | 70 | 234 | 4.3 | 13.0 | 0.00 | 0.00 | 0.00 | 46 | 1014.9 |
| 20260508082604 | 69 | 235 | 5.2 | 13.0 | 0.00 | 0.00 | 0.00 | 45 | 1015.0 |
| 20260508082404 | 69 | 239 | 5.2 | 13.0 | 0.00 | 0.00 | 0.00 | 45 | 1014.8 |
| 20260508082205 | 69 | 239 | 5.2 | 13.0 | 0.00 | 0.00 | 0.00 | 45 | 1014.8 |
| 20260508082004 | 69 | 240 | 5.2 | 13.0 | 0.00 | 0.00 | 0.00 | 44 | 1014.7 |
| 20260508081804 | 69 | 249 | 5.2 | 13.0 | 0.00 | 0.00 | 0.00 | 43 | 1015.1 |
| 20260508081604 | 70 | 249 | 4.3 | 13.0 | 0.00 | 0.00 | 0.00 | 43 | 1014.9 |
| 20260508081404 | 71 | 248 | 4.3 | 13.0 | 0.00 | 0.00 | 0.00 | 43 | 1015.1 |
| 20260508081204 | 70 | 249 | 4.3 | 13.0 | 0.00 | 0.00 | 0.00 | 43 | 1015.0 |
| 20260508081004 | 70 | 240 | 4.3 | 13.0 | 0.00 | 0.00 | 0.00 | 43 | 1015.2 |
| 20260508080806 | 71 | 225 | 4.3 | 10.4 | 0.00 | 0.00 | 0.00 | 42 | 1014.9 |
| 20260508080604 | 70 | 226 | 4.3 | 10.4 | 0.00 | 0.00 | 0.00 | 42 | 1015.2 |
| 20260508080404 | 70 | 217 | 4.3 | 10.4 | 0.00 | 0.00 | 0.00 | 42 | 1015.2 |
| 20260508080005 | 70 | 231 | 5.2 | 12.2 | 0.00 | 0.00 | 0.00 | 41 | 1015.2 |
| 20260508075804 | 70 | 243 | 5.2 | 13.0 | 0.00 | 0.00 | 0.00 | 41 | 1015.1 |
| 20260508075605 | 70 | 237 | 5.2 | 13.0 | 0.00 | 0.00 | 0.00 | 41 | 1015.3 |
| 20260508075405 | 70 | 240 | 6.1 | 13.0 | 0.00 | 0.00 | 0.00 | 41 | 1015.3 |
| 20260508075005 | 70 | 241 | 5.2 | 13.0 | 0.00 | 0.00 | 0.00 | 40 | 1015.2 |
| 20260508074804 | 70 | 238 | 5.2 | 13.0 | 0.00 | 0.00 | 0.00 | 40 | 1015.3 |
| 20260508074604 | 70 | 241 | 4.3 | 13.0 | 0.00 | 0.00 | 0.00 | 41 | 1015.3 |
| 20260508074405 | 70 | 241 | 4.3 | 11.3 | 0.00 | 0.00 | 0.00 | 41 | 1015.3 |
| 20260508074204 | 70 | 237 | 3.5 | 11.3 | 0.00 | 0.00 | 0.00 | 41 | 1015.0 |
| 20260508074004 | 70 | 231 | 3.5 | 11.3 | 0.00 | 0.00 | 0.00 | 41 | 1015.2 |
| 20260508073804 | 69 | 234 | 3.5 | 8.7 | 0.00 | 0.00 | 0.00 | 41 | 1015.1 |
| 20260508073604 | 69 | 241 | 3.5 | 9.6 | 0.00 | 0.00 | 0.00 | 42 | 1015.3 |
| 20260508073405 | 69 | 247 | 3.5 | 9.6 | 0.00 | 0.00 | 0.00 | 42 | 1015.1 |
| 20260508073204 | 68 | 252 | 3.5 | 9.6 | 0.00 | 0.00 | 0.00 | 42 | 1015.3 |
| 20260508073005 | 69 | 248 | 4.3 | 11.3 | 0.00 | 0.00 | 0.00 | 42 | 1015.5 |
| 20260508072804 | 69 | 239 | 4.3 | 11.3 | 0.00 | 0.00 | 0.00 | 42 | 1015.4 |
| 20260508072604 | 68 | 235 | 4.3 | 11.3 | 0.00 | 0.00 | 0.00 | 42 | 1015.4 |
| 20260508072404 | 68 | 230 | 4.3 | 11.3 | 0.00 | 0.00 | 0.00 | 42 | 1015.3 |
| 20260508072204 | 68 | 223 | 4.3 | 11.3 | 0.00 | 0.00 | 0.00 | 42 | 1015.3 |
| 20260508071804 | 68 | 218 | 4.3 | 11.3 | 0.00 | 0.00 | 0.00 | 42 | 1015.7 |
| 20260508071604 | 68 | 222 | 4.3 | 11.3 | 0.00 | 0.00 | 0.00 | 42 | 1015.5 |
| 20260508071406 | 68 | 215 | 3.5 | 11.3 | 0.00 | 0.00 | 0.00 | 41 | 1015.5 |
| 20260508071204 | 68 | 224 | 4.3 | 10.4 | 0.00 | 0.00 | 0.00 | 41 | 1015.5 |
| 20260508071005 | 68 | 215 | 4.3 | 10.4 | 0.00 | 0.00 | 0.00 | 42 | 1015.6 |
| 20260508070604 | 68 | 220 | 4.3 | 10.4 | 0.00 | 0.00 | 0.00 | 40 | 1015.5 |
| 20260508070404 | 68 | 229 | 4.3 | 9.6 | 0.00 | 0.00 | 0.00 | 40 | 1015.8 |
| 20260508070204 | 68 | 228 | 4.3 | 9.6 | 0.00 | 0.00 | 0.00 | 40 | 1015.8 |
| 20260508065804 | 68 | 241 | 3.5 | 9.6 | 0.00 | 0.00 | 0.00 | 39 | 1015.8 |
| 20260508065605 | 68 | 244 | 3.5 | 9.6 | 0.00 | 0.00 | 0.00 | 39 | 1015.8 |
| 20260508065404 | 68 | 242 | 2.6 | 7.8 | 0.00 | 0.00 | 0.00 | 39 | 1015.9 |
| 20260508065204 | 68 | 247 | 2.6 | 7.8 | 0.00 | 0.00 | 0.00 | 39 | 1015.8 |
| 20260508065005 | 68 | 248 | 2.6 | 7.8 | 0.00 | 0.00 | 0.00 | 39 | 1015.9 |
| 20260508064604 | 68 | 252 | 2.6 | 7.0 | 0.00 | 0.00 | 0.00 | 39 | 1015.8 |
| 20260508064204 | 67 | 238 | 2.6 | 7.0 | 0.00 | 0.00 | 0.00 | 39 | 1015.8 |
| 20260508064004 | 67 | 237 | 2.6 | 7.0 | 0.00 | 0.00 | 0.00 | 39 | 1015.6 |
| 20260508063804 | 67 | 241 | 2.6 | 7.0 | 0.00 | 0.00 | 0.00 | 39 | 1015.7 |
| 20260508063404 | 67 | 251 | 2.6 | 5.2 | 0.00 | 0.00 | 0.00 | 39 | 1015.6 |
| 20260508063004 | 67 | 251 | 2.6 | 7.0 | 0.00 | 0.00 | 0.00 | 38 | 1015.3 |
| 20260508062804 | 67 | 253 | 2.6 | 7.0 | 0.00 | 0.00 | 0.00 | 38 | 1015.4 |
| 20260508062604 | 67 | 254 | 2.6 | 7.0 | 0.00 | 0.00 | 0.00 | 38 | 1015.7 |
| 20260508062405 | 67 | 254 | 1.7 | 7.0 | 0.00 | 0.00 | 0.00 | 37 | 1015.5 |
| 20260508062005 | 67 | 239 | 1.7 | 5.2 | 0.00 | 0.00 | 0.00 | 38 | 1015.5 |
| 20260508061804 | 68 | 236 | 1.7 | 5.2 | 0.00 | 0.00 | 0.00 | 40 | 1015.3 |
| 20260508061405 | 68 | 237 | 1.7 | 5.2 | 0.00 | 0.00 | 0.00 | 41 | 1015.5 |
| 20260508061204 | 68 | 247 | 1.7 | 5.2 | 0.00 | 0.00 | 0.00 | 42 | 1015.4 |
| 20260508061004 | 68 | 238 | 1.7 | 5.2 | 0.00 | 0.00 | 0.00 | 40 | 1015.3 |
| 20260508060804 | 67 | 230 | 1.7 | 4.3 | 0.00 | 0.00 | 0.00 | 42 | 1015.1 |
| 20260508060604 | 68 | 226 | 0.9 | 4.3 | 0.00 | 0.00 | 0.00 | 41 | 1015.3 |
| 20260508060404 | 68 | 221 | 0.9 | 3.5 | 0.00 | 0.00 | 0.00 | 45 | 1014.9 |
| 20260508060204 | 68 | 217 | 0.9 | 3.5 | 0.00 | 0.00 | 0.00 | 45 | 1015.0 |
| 20260508060005 | 68 | 234 | 0.9 | 3.5 | 0.00 | 0.00 | 0.00 | 46 | 1015.0 |
| 20260508055806 | 68 | 248 | 0.0 | 3.5 | 0.00 | 0.00 | 0.00 | 49 | 1014.7 |
| 20260508055604 | 68 | 248 | 0.0 | 2.6 | 0.00 | 0.00 | 0.00 | 50 | 1014.7 |
| 20260508055204 | 68 | 189 | 0.0 | 1.7 | 0.00 | 0.00 | 0.00 | 51 | 1014.6 |
| 20260508055004 | 68 | 163 | 0.0 | 1.7 | 0.00 | 0.00 | 0.00 | 52 | 1014.3 |
| 20260508054805 | 68 | 158 | 0.0 | 1.7 | 0.00 | 0.00 | 0.00 | 51 | 1014.5 |
| 20260508054604 | 68 | 152 | 0.0 | 1.7 | 0.00 | 0.00 | 0.00 | 52 | 1014.3 |
| 20260508054004 | 68 | 226 | 0.0 | 3.5 | 0.00 | 0.00 | 0.00 | 51 | 1014.3 |
| 20260508053804 | 67 | 223 | 0.0 | 3.5 | 0.00 | 0.00 | 0.00 | 51 | 1014.1 |
| 20260508053404 | 68 | 208 | 0.0 | 1.7 | 0.00 | 0.00 | 0.00 | 51 | 1014.2 |
| 20260508053204 | 68 | 201 | 0.0 | 1.7 | 0.00 | 0.00 | 0.00 | 52 | 1013.9 |
| 20260508052605 | 68 | 248 | 0.0 | 1.7 | 0.00 | 0.00 | 0.00 | 52 | 1013.9 |
| 20260508052404 | 68 | 248 | 0.0 | 1.7 | 0.00 | 0.00 | 0.00 | 51 | 1013.8 |
| 20260508052205 | 67 | 248 | 0.0 | 1.7 | 0.00 | 0.00 | 0.00 | 52 | 1013.8 |
| 20260508052004 | 67 | 248 | 0.0 | 1.7 | 0.00 | 0.00 | 0.00 | 51 | 1013.6 |
| 20260508051804 | 67 | 248 | 0.0 | 1.7 | 0.00 | 0.00 | 0.00 | 51 | 1013.5 |
| 20260508051605 | 67 | 0 | 0.0 | 0.0 | 0.00 | 0.00 | 0.00 | 52 | 1013.5 |
| 20260508051405 | 67 | 0 | 0.0 | 0.0 | 0.00 | 0.00 | 0.00 | 52 | 1013.6 |
| 20260508051204 | 67 | 135 | 0.0 | 0.9 | 0.00 | 0.00 | 0.00 | 53 | 1013.7 |
| 20260508051004 | 67 | 135 | 0.0 | 0.9 | 0.00 | 0.00 | 0.00 | 52 | 1013.8 |
| 20260508050805 | 66 | 135 | 0.0 | 1.7 | 0.00 | 0.00 | 0.00 | 53 | 1013.5 |
| 20260508050604 | 66 | 135 | 0.0 | 1.7 | 0.00 | 0.00 | 0.00 | 53 | 1013.6 |
| 20260508050405 | 65 | 135 | 0.0 | 1.7 | 0.00 | 0.00 | 0.00 | 53 | 1013.6 |
| 20260508050005 | 65 | 137 | 0.0 | 1.7 | 0.00 | 0.00 | 0.00 | 53 | 1013.7 |
| 20260508045804 | 65 | 138 | 0.0 | 1.7 | 0.00 | 0.00 | 0.00 | 53 | 1013.6 |
| 20260508045605 | 65 | 143 | 0.0 | 1.7 | 0.00 | 0.00 | 0.00 | 54 | 1013.6 |
| 20260508045404 | 65 | 152 | 0.0 | 1.7 | 0.00 | 0.00 | 0.00 | 55 | 1013.9 |
| 20260508045205 | 65 | 170 | 0.0 | 1.7 | 0.00 | 0.00 | 0.00 | 56 | 1013.9 |
| 20260508045004 | 65 | 181 | 0.0 | 1.7 | 0.00 | 0.00 | 0.00 | 56 | 1013.9 |
| 20260508044804 | 65 | 181 | 0.0 | 1.7 | 0.00 | 0.00 | 0.00 | 56 | 1013.7 |
| 20260508044604 | 64 | 166 | 0.0 | 1.7 | 0.00 | 0.00 | 0.00 | 56 | 1013.8 |
| 20260508044404 | 64 | 204 | 0.0 | 1.7 | 0.00 | 0.00 | 0.00 | 57 | 1013.8 |
| 20260508044204 | 64 | 225 | 0.0 | 1.7 | 0.00 | 0.00 | 0.00 | 57 | 1013.7 |
| 20260508044004 | 65 | 216 | 0.0 | 1.7 | 0.00 | 0.00 | 0.00 | 57 | 1013.7 |
| 20260508043804 | 64 | 221 | 0.0 | 1.7 | 0.00 | 0.00 | 0.00 | 57 | 1013.4 |
| 20260508043604 | 64 | 227 | 0.0 | 1.7 | 0.00 | 0.00 | 0.00 | 57 | 1013.4 |
| 20260508043204 | 64 | 211 | 0.0 | 1.7 | 0.00 | 0.00 | 0.00 | 57 | 1013.4 |
| 20260508043005 | 64 | 150 | 0.0 | 2.6 | 0.00 | 0.00 | 0.00 | 57 | 1013.4 |
| 20260508042604 | 64 | 135 | 0.0 | 2.6 | 0.00 | 0.00 | 0.00 | 56 | 1013.2 |
| 20260508042404 | 64 | 134 | 0.0 | 2.6 | 0.00 | 0.00 | 0.00 | 56 | 1013.0 |
| 20260508042204 | 64 | 132 | 0.0 | 2.6 | 0.00 | 0.00 | 0.00 | 56 | 1013.1 |
| 20260508042004 | 63 | 135 | 0.0 | 2.6 | 0.00 | 0.00 | 0.00 | 57 | 1013.1 |
| 20260508041604 | 64 | 135 | 0.0 | 2.6 | 0.00 | 0.00 | 0.00 | 57 | 1013.0 |
| 20260508041405 | 64 | 135 | 0.0 | 1.7 | 0.00 | 0.00 | 0.00 | 58 | 1013.1 |
| 20260508041204 | 63 | 135 | 0.0 | 1.7 | 0.00 | 0.00 | 0.00 | 57 | 1013.0 |
| 20260508041004 | 63 | 158 | 0.0 | 1.7 | 0.00 | 0.00 | 0.00 | 57 | 1013.0 |
| 20260508040804 | 64 | 162 | 0.0 | 2.6 | 0.00 | 0.00 | 0.00 | 57 | 1013.1 |
| 20260508040604 | 63 | 151 | 0.0 | 3.5 | 0.00 | 0.00 | 0.00 | 58 | 1013.0 |
| 20260508040405 | 64 | 147 | 0.0 | 3.5 | 0.00 | 0.00 | 0.00 | 57 | 1013.0 |
| 20260508040204 | 64 | 147 | 0.0 | 3.5 | 0.00 | 0.00 | 0.00 | 57 | 1013.0 |
| 20260508040005 | 63 | 143 | 0.0 | 3.5 | 0.00 | 0.00 | 0.00 | 58 | 1012.6 |
| 20260508035805 | 63 | 136 | 0.0 | 3.5 | 0.00 | 0.00 | 0.00 | 58 | 1012.7 |
| 20260508035604 | 63 | 122 | 0.0 | 2.6 | 0.00 | 0.00 | 0.00 | 58 | 1012.6 |
| 20260508035405 | 64 | 76 | 0.0 | 1.7 | 0.00 | 0.00 | 0.00 | 58 | 1012.6 |
| 20260508035204 | 63 | 80 | 0.0 | 1.7 | 0.00 | 0.00 | 0.00 | 58 | 1012.8 |
| 20260508035004 | 63 | 86 | 0.0 | 1.7 | 0.00 | 0.00 | 0.00 | 58 | 1012.7 |
| 20260508034804 | 63 | 88 | 0.0 | 1.7 | 0.00 | 0.00 | 0.00 | 57 | 1012.7 |
| 20260508034604 | 63 | 101 | 0.0 | 1.7 | 0.00 | 0.00 | 0.00 | 57 | 1012.7 |
| 20260508034404 | 63 | 140 | 0.0 | 1.7 | 0.00 | 0.00 | 0.00 | 57 | 1012.8 |
| 20260508034004 | 63 | 141 | 0.0 | 1.7 | 0.00 | 0.00 | 0.00 | 57 | 1012.7 |
| 20260508033604 | 63 | 146 | 0.0 | 1.7 | 0.00 | 0.00 | 0.00 | 57 | 1012.8 |
| 20260508033404 | 63 | 146 | 0.0 | 1.7 | 0.00 | 0.00 | 0.00 | 58 | 1012.7 |
| 20260508033004 | 63 | 157 | 0.0 | 1.7 | 0.00 | 0.00 | 0.00 | 58 | 1012.7 |
| 20260508032804 | 62 | 135 | 0.0 | 0.9 | 0.00 | 0.00 | 0.00 | 58 | 1012.7 |
| 20260508032604 | 63 | 135 | 0.0 | 0.9 | 0.00 | 0.00 | 0.00 | 58 | 1012.8 |
| 20260508032404 | 63 | 135 | 0.0 | 2.6 | 0.00 | 0.00 | 0.00 | 57 | 1012.9 |
| 20260508032004 | 63 | 135 | 0.0 | 2.6 | 0.00 | 0.00 | 0.00 | 57 | 1012.7 |
| 20260508031804 | 63 | 138 | 0.0 | 2.6 | 0.00 | 0.00 | 0.00 | 57 | 1012.7 |
| 20260508031604 | 63 | 142 | 0.9 | 2.6 | 0.00 | 0.00 | 0.00 | 57 | 1012.6 |
| 20260508031404 | 63 | 143 | 0.9 | 2.6 | 0.00 | 0.00 | 0.00 | 57 | 1012.7 |
| 20260508031204 | 63 | 146 | 0.0 | 2.6 | 0.00 | 0.00 | 0.00 | 57 | 1012.8 |
| 20260508031004 | 63 | 153 | 0.0 | 2.6 | 0.00 | 0.00 | 0.00 | 58 | 1012.7 |
| 20260508030804 | 63 | 154 | 0.0 | 2.6 | 0.00 | 0.00 | 0.00 | 58 | 1012.6 |
| 20260508030604 | 63 | 135 | 0.0 | 1.7 | 0.00 | 0.00 | 0.00 | 59 | 1012.6 |
| 20260508030404 | 63 | 248 | 0.0 | 1.7 | 0.00 | 0.00 | 0.00 | 59 | 1012.8 |
| 20260508030204 | 63 | 238 | 0.0 | 1.7 | 0.00 | 0.00 | 0.00 | 59 | 1012.8 |
| 20260508030005 | 63 | 205 | 0.0 | 1.7 | 0.00 | 0.00 | 0.00 | 59 | 1012.8 |
| 20260508025804 | 63 | 160 | 0.0 | 2.6 | 0.00 | 0.00 | 0.00 | 59 | 1012.8 |
| 20260508025604 | 63 | 148 | 0.0 | 2.6 | 0.00 | 0.00 | 0.00 | 59 | 1012.7 |
| 20260508025404 | 63 | 136 | 0.9 | 2.6 | 0.00 | 0.00 | 0.00 | 58 | 1012.9 |
| 20260508025204 | 63 | 135 | 0.9 | 2.6 | 0.00 | 0.00 | 0.00 | 58 | 1012.7 |
| 20260508024804 | 62 | 135 | 0.9 | 2.6 | 0.00 | 0.00 | 0.00 | 59 | 1012.6 |
| 20260508024605 | 63 | 135 | 0.9 | 2.6 | 0.00 | 0.00 | 0.00 | 59 | 1012.6 |
| 20260508024404 | 63 | 135 | 0.0 | 2.6 | 0.00 | 0.00 | 0.00 | 60 | 1012.5 |
| 20260508024004 | 62 | 135 | 0.0 | 0.9 | 0.00 | 0.00 | 0.00 | 61 | 1012.8 |
| 20260508023805 | 62 | 135 | 0.0 | 0.9 | 0.00 | 0.00 | 0.00 | 61 | 1013.0 |
| 20260508023604 | 63 | 135 | 0.0 | 1.7 | 0.00 | 0.00 | 0.00 | 61 | 1013.0 |
| 20260508023005 | 62 | 135 | 0.0 | 1.7 | 0.00 | 0.00 | 0.00 | 62 | 1012.9 |
| 20260508022805 | 63 | 135 | 0.0 | 1.7 | 0.00 | 0.00 | 0.00 | 62 | 1012.7 |
| 20260508022605 | 63 | 135 | 0.0 | 1.7 | 0.00 | 0.00 | 0.00 | 63 | 1012.9 |
| 20260508022404 | 62 | 135 | 0.0 | 1.7 | 0.00 | 0.00 | 0.00 | 64 | 1012.9 |
| 20260508022204 | 62 | 135 | 0.0 | 1.7 | 0.00 | 0.00 | 0.00 | 65 | 1013.0 |
| 20260508022005 | 62 | 135 | 0.0 | 1.7 | 0.00 | 0.00 | 0.00 | 65 | 1012.6 |
| 20260508021804 | 62 | 135 | 0.0 | 1.7 | 0.00 | 0.00 | 0.00 | 65 | 1012.8 |
| 20260508021604 | 62 | 135 | 0.0 | 0.9 | 0.00 | 0.00 | 0.00 | 64 | 1013.0 |
| 20260508021405 | 62 | 135 | 0.0 | 0.9 | 0.00 | 0.00 | 0.00 | 64 | 1012.7 |
| 20260508021204 | 63 | 135 | 0.0 | 0.9 | 0.00 | 0.00 | 0.00 | 64 | 1012.8 |
| 20260508021004 | 62 | 135 | 0.0 | 0.9 | 0.00 | 0.00 | 0.00 | 64 | 1013.0 |
| 20260508020804 | 63 | 135 | 0.0 | 1.7 | 0.00 | 0.00 | 0.00 | 64 | 1013.0 |
| 20260508020604 | 63 | 135 | 0.0 | 1.7 | 0.00 | 0.00 | 0.00 | 65 | 1013.0 |
| 20260508020404 | 63 | 135 | 0.0 | 1.7 | 0.00 | 0.00 | 0.00 | 65 | 1012.8 |
| 20260508020204 | 63 | 135 | 0.0 | 3.5 | 0.00 | 0.00 | 0.00 | 65 | 1012.8 |
| 20260508020004 | 63 | 135 | 0.0 | 3.5 | 0.00 | 0.00 | 0.00 | 65 | 1012.9 |
| 20260508015805 | 63 | 135 | 0.0 | 3.5 | 0.00 | 0.00 | 0.00 | 65 | 1012.9 |
| 20260508015605 | 62 | 135 | 0.0 | 3.5 | 0.00 | 0.00 | 0.00 | 64 | 1012.5 |
| 20260508015404 | 62 | 135 | 0.0 | 3.5 | 0.00 | 0.00 | 0.00 | 64 | 1012.7 |
| 20260508015204 | 62 | 135 | 0.0 | 2.6 | 0.00 | 0.00 | 0.00 | 65 | 1012.9 |
| 20260508015004 | 62 | 135 | 0.0 | 1.7 | 0.00 | 0.00 | 0.00 | 65 | 1012.9 |
| 20260508014804 | 62 | 0 | 0.0 | 0.0 | 0.00 | 0.00 | 0.00 | 65 | 1012.8 |
| 20260508014605 | 63 | 0 | 0.0 | 0.0 | 0.00 | 0.00 | 0.00 | 65 | 1012.9 |
| 20260508014404 | 62 | 181 | 0.0 | 0.9 | 0.00 | 0.00 | 0.00 | 65 | 1012.9 |
| 20260508014204 | 63 | 143 | 0.0 | 1.7 | 0.00 | 0.00 | 0.00 | 65 | 1012.9 |
| 20260508014004 | 63 | 138 | 0.0 | 1.7 | 0.00 | 0.00 | 0.00 | 65 | 1012.9 |
| 20260508013804 | 62 | 137 | 0.0 | 1.7 | 0.00 | 0.00 | 0.00 | 65 | 1013.0 |
| 20260508013405 | 63 | 135 | 0.0 | 1.7 | 0.00 | 0.00 | 0.00 | 65 | 1013.2 |
| 20260508013204 | 63 | 136 | 0.0 | 1.7 | 0.00 | 0.00 | 0.00 | 65 | 1012.9 |
| 20260508013005 | 63 | 136 | 0.0 | 1.7 | 0.00 | 0.00 | 0.00 | 65 | 1012.9 |
| 20260508012804 | 63 | 137 | 0.0 | 1.7 | 0.00 | 0.00 | 0.00 | 65 | 1013.1 |
| 20260508012604 | 63 | 137 | 0.0 | 1.7 | 0.00 | 0.00 | 0.00 | 65 | 1012.9 |
| 20260508012405 | 63 | 138 | 0.0 | 1.7 | 0.00 | 0.00 | 0.00 | 65 | 1013.1 |
| 20260508012204 | 63 | 135 | 0.0 | 1.7 | 0.00 | 0.00 | 0.00 | 65 | 1013.0 |
| 20260508012004 | 63 | 135 | 0.0 | 1.7 | 0.00 | 0.00 | 0.00 | 65 | 1013.2 |
| 20260508011805 | 63 | 135 | 0.0 | 1.7 | 0.00 | 0.00 | 0.00 | 64 | 1013.3 |
| 20260508011604 | 63 | 135 | 0.0 | 1.7 | 0.00 | 0.00 | 0.00 | 64 | 1013.3 |
| 20260508011404 | 63 | 135 | 0.0 | 1.7 | 0.00 | 0.00 | 0.00 | 64 | 1013.3 |
| 20260508011204 | 63 | 135 | 0.0 | 1.7 | 0.00 | 0.00 | 0.00 | 64 | 1013.3 |
| 20260508011005 | 63 | 135 | 0.0 | 1.7 | 0.00 | 0.00 | 0.00 | 64 | 1013.2 |
| 20260508010804 | 63 | 135 | 0.0 | 1.7 | 0.00 | 0.00 | 0.00 | 64 | 1013.5 |
| 20260508010604 | 63 | 135 | 0.0 | 1.7 | 0.00 | 0.00 | 0.00 | 65 | 1013.3 |
| 20260508010404 | 63 | 137 | 0.0 | 1.7 | 0.00 | 0.00 | 0.00 | 65 | 1013.3 |
| 20260508005805 | 63 | 142 | 0.0 | 1.7 | 0.00 | 0.00 | 0.00 | 65 | 1013.4 |
| 20260508005404 | 63 | 0 | 0.0 | 0.0 | 0.00 | 0.00 | 0.00 | 64 | 1013.7 |
| 20260508005204 | 63 | 135 | 0.0 | 0.9 | 0.00 | 0.00 | 0.00 | 64 | 1013.6 |
| 20260508005004 | 63 | 135 | 0.0 | 1.7 | 0.00 | 0.00 | 0.00 | 63 | 1013.4 |
| 20260508004804 | 63 | 135 | 0.0 | 1.7 | 0.00 | 0.00 | 0.00 | 63 | 1013.6 |
| 20260508004605 | 63 | 135 | 0.0 | 1.7 | 0.00 | 0.00 | 0.00 | 63 | 1013.6 |
| 20260508004404 | 64 | 135 | 0.0 | 1.7 | 0.00 | 0.00 | 0.00 | 63 | 1013.4 |
| 20260508004205 | 63 | 135 | 0.0 | 1.7 | 0.00 | 0.00 | 0.00 | 63 | 1013.5 |
| 20260508004004 | 64 | 135 | 0.0 | 1.7 | 0.00 | 0.00 | 0.00 | 63 | 1013.6 |
| 20260508003804 | 64 | 135 | 0.0 | 1.7 | 0.00 | 0.00 | 0.00 | 63 | 1013.4 |
| 20260508003605 | 64 | 135 | 0.0 | 1.7 | 0.00 | 0.00 | 0.00 | 63 | 1013.4 |
| 20260508003404 | 63 | 135 | 0.0 | 1.7 | 0.00 | 0.00 | 0.00 | 63 | 1013.5 |
| 20260508003205 | 64 | 135 | 0.0 | 1.7 | 0.00 | 0.00 | 0.00 | 63 | 1013.6 |
| 20260508003005 | 64 | 135 | 0.0 | 1.7 | 0.00 | 0.00 | 0.00 | 63 | 1013.5 |
| 20260508002804 | 64 | 135 | 0.0 | 1.7 | 0.00 | 0.00 | 0.00 | 63 | 1013.3 |
| 20260508002204 | 64 | 135 | 0.0 | 1.7 | 0.00 | 0.00 | 0.00 | 63 | 1013.5 |
| 20260508001805 | 64 | 100 | 0.0 | 2.6 | 0.00 | 0.00 | 0.00 | 64 | 1013.6 |
| 20260508001604 | 64 | 99 | 0.0 | 2.6 | 0.00 | 0.00 | 0.00 | 64 | 1013.5 |
| 20260508001404 | 64 | 100 | 0.0 | 2.6 | 0.00 | 0.00 | 0.00 | 64 | 1013.3 |
| 20260508001204 | 64 | 102 | 0.0 | 2.6 | 0.00 | 0.00 | 0.00 | 64 | 1013.5 |
| 20260508001005 | 64 | 114 | 0.0 | 1.7 | 0.00 | 0.00 | 0.00 | 63 | 1013.5 |
| 20260508000604 | 64 | 135 | 0.0 | 1.7 | 0.00 | 0.00 | 0.00 | 60 | 1013.7 |
| 20260508000205 | 64 | 135 | 0.0 | 1.7 | 0.00 | 0.00 | 0.00 | 60 | 1013.7 |
| 20260508000004 | 64 | 135 | 0.0 | 1.7 | 0.00 | 0.00 | 0.00 | 60 | 1013.6 |
| 20260507235604 | 64 | 135 | 0.0 | 0.9 | 0.00 | 0.00 | 0.00 | 60 | 1013.6 |
| 20260507235405 | 64 | 135 | 0.0 | 0.9 | 0.00 | 0.00 | 0.00 | 60 | 1013.6 |
| 20260507234804 | 64 | 120 | 0.0 | 0.9 | 0.00 | 0.00 | 0.00 | 58 | 1013.8 |
| 20260507234604 | 64 | 126 | 0.0 | 0.9 | 0.00 | 0.00 | 0.00 | 59 | 1014.1 |
| 20260507234405 | 64 | 141 | 0.0 | 1.7 | 0.00 | 0.00 | 0.00 | 58 | 1013.9 |
| 20260507234204 | 64 | 140 | 0.0 | 1.7 | 0.00 | 0.00 | 0.00 | 58 | 1014.1 |
| 20260507234004 | 64 | 147 | 0.0 | 1.7 | 0.00 | 0.00 | 0.00 | 57 | 1014.1 |
| 20260507233804 | 64 | 144 | 0.0 | 1.7 | 0.00 | 0.00 | 0.00 | 57 | 1014.1 |
| 20260507233604 | 64 | 139 | 0.0 | 1.7 | 0.00 | 0.00 | 0.00 | 57 | 1014.2 |
| 20260507233404 | 64 | 135 | 0.0 | 1.7 | 0.00 | 0.00 | 0.00 | 57 | 1014.2 |
| 20260507233204 | 64 | 135 | 0.0 | 1.7 | 0.00 | 0.00 | 0.00 | 57 | 1014.1 |
| 20260507233004 | 64 | 135 | 0.0 | 0.9 | 0.00 | 0.00 | 0.00 | 57 | 1014.2 |
| 20260507232804 | 64 | 135 | 0.0 | 0.9 | 0.00 | 0.00 | 0.00 | 57 | 1014.2 |
| 20260507232604 | 64 | 135 | 0.0 | 0.9 | 0.00 | 0.00 | 0.00 | 57 | 1014.2 |
| 20260507232404 | 64 | 135 | 0.0 | 0.9 | 0.00 | 0.00 | 0.00 | 56 | 1014.2 |
| 20260507232204 | 64 | 135 | 0.0 | 0.9 | 0.00 | 0.00 | 0.00 | 56 | 1014.2 |
| 20260507232004 | 64 | 135 | 0.0 | 0.9 | 0.00 | 0.00 | 0.00 | 56 | 1014.1 |
| 20260507231804 | 64 | 135 | 0.0 | 0.9 | 0.00 | 0.00 | 0.00 | 56 | 1014.1 |
| 20260507231604 | 64 | 135 | 0.0 | 1.7 | 0.00 | 0.00 | 0.00 | 56 | 1013.9 |
| 20260507231404 | 64 | 135 | 0.0 | 1.7 | 0.00 | 0.00 | 0.00 | 56 | 1013.9 |
| 20260507231204 | 64 | 135 | 0.0 | 1.7 | 0.00 | 0.00 | 0.00 | 56 | 1013.9 |
| 20260507230804 | 64 | 135 | 0.0 | 1.7 | 0.00 | 0.00 | 0.00 | 55 | 1013.9 |
| 20260507230604 | 64 | 135 | 0.0 | 1.7 | 0.00 | 0.00 | 0.00 | 55 | 1014.0 |
| 20260507230404 | 64 | 135 | 0.0 | 1.7 | 0.00 | 0.00 | 0.00 | 55 | 1014.1 |
| 20260507230204 | 64 | 135 | 0.0 | 1.7 | 0.00 | 0.00 | 0.00 | 55 | 1014.1 |
| 20260507230005 | 64 | 135 | 0.0 | 1.7 | 0.00 | 0.00 | 0.00 | 55 | 1014.1 |
| 20260507225804 | 64 | 135 | 0.0 | 1.7 | 0.00 | 0.00 | 0.00 | 55 | 1014.1 |
| 20260507225604 | 64 | 135 | 0.0 | 1.7 | 0.00 | 0.00 | 0.00 | 55 | 1014.3 |
| 20260507225404 | 64 | 135 | 0.0 | 1.7 | 0.00 | 0.00 | 0.00 | 55 | 1014.2 |
| 20260507225205 | 64 | 135 | 0.0 | 1.7 | 0.00 | 0.00 | 0.00 | 55 | 1014.1 |
| 20260507225004 | 64 | 135 | 0.0 | 1.7 | 0.00 | 0.00 | 0.00 | 54 | 1014.4 |
| 20260507224804 | 64 | 135 | 0.0 | 1.7 | 0.00 | 0.00 | 0.00 | 54 | 1014.2 |
| 20260507224605 | 64 | 135 | 0.0 | 1.7 | 0.00 | 0.00 | 0.00 | 54 | 1014.3 |
| 20260507224404 | 64 | 135 | 0.0 | 1.7 | 0.00 | 0.00 | 0.00 | 54 | 1014.3 |
| 20260507224204 | 65 | 135 | 0.0 | 1.7 | 0.00 | 0.00 | 0.00 | 54 | 1014.3 |
| 20260507224004 | 65 | 135 | 0.0 | 1.7 | 0.00 | 0.00 | 0.00 | 55 | 1014.3 |
| 20260507223604 | 65 | 140 | 0.0 | 1.7 | 0.00 | 0.00 | 0.00 | 54 | 1014.4 |
| 20260507223404 | 64 | 141 | 0.0 | 1.7 | 0.00 | 0.00 | 0.00 | 55 | 1014.4 |
| 20260507223204 | 65 | 136 | 0.0 | 1.7 | 0.00 | 0.00 | 0.00 | 54 | 1014.3 |
| 20260507223004 | 64 | 139 | 0.0 | 1.7 | 0.00 | 0.00 | 0.00 | 54 | 1014.4 |
| 20260507222804 | 65 | 125 | 0.0 | 1.7 | 0.00 | 0.00 | 0.00 | 54 | 1014.4 |
| 20260507222604 | 65 | 114 | 0.0 | 2.6 | 0.00 | 0.00 | 0.00 | 54 | 1014.3 |
| 20260507222404 | 65 | 112 | 0.0 | 2.6 | 0.00 | 0.00 | 0.00 | 54 | 1014.4 |
| 20260507222204 | 65 | 105 | 0.0 | 2.6 | 0.00 | 0.00 | 0.00 | 54 | 1014.3 |
| 20260507222004 | 65 | 103 | 0.0 | 2.6 | 0.00 | 0.00 | 0.00 | 55 | 1014.3 |
| 20260507221804 | 65 | 107 | 0.0 | 2.6 | 0.00 | 0.00 | 0.00 | 55 | 1014.5 |
| 20260507221604 | 65 | 111 | 0.0 | 2.6 | 0.00 | 0.00 | 0.00 | 54 | 1014.4 |
| 20260507221404 | 64 | 103 | 0.0 | 2.6 | 0.00 | 0.00 | 0.00 | 54 | 1014.2 |
| 20260507221204 | 64 | 103 | 0.0 | 1.7 | 0.00 | 0.00 | 0.00 | 53 | 1014.6 |
| 20260507221004 | 65 | 99 | 0.0 | 1.7 | 0.00 | 0.00 | 0.00 | 53 | 1014.4 |
| 20260507220804 | 65 | 91 | 0.0 | 1.7 | 0.00 | 0.00 | 0.00 | 53 | 1014.5 |
| 20260507220604 | 65 | 90 | 0.0 | 1.7 | 0.00 | 0.00 | 0.00 | 53 | 1014.7 |
| 20260507220404 | 65 | 90 | 0.0 | 1.7 | 0.00 | 0.00 | 0.00 | 53 | 1014.5 |
| 20260507220004 | 65 | 90 | 0.0 | 1.7 | 0.00 | 0.00 | 0.00 | 53 | 1014.4 |
| 20260507215804 | 65 | 90 | 0.0 | 0.9 | 0.00 | 0.00 | 0.00 | 53 | 1014.6 |
| 20260507215604 | 65 | 90 | 0.0 | 1.7 | 0.00 | 0.00 | 0.00 | 53 | 1014.7 |
| 20260507215404 | 65 | 90 | 0.0 | 1.7 | 0.00 | 0.00 | 0.00 | 53 | 1014.7 |
| 20260507215004 | 65 | 90 | 0.0 | 1.7 | 0.00 | 0.00 | 0.00 | 53 | 1014.6 |
| 20260507214804 | 65 | 90 | 0.0 | 1.7 | 0.00 | 0.00 | 0.00 | 53 | 1014.8 |
| 20260507214404 | 65 | 92 | 0.0 | 1.7 | 0.00 | 0.00 | 0.00 | 53 | 1014.9 |
| 20260507214204 | 65 | 100 | 0.0 | 1.7 | 0.00 | 0.00 | 0.00 | 53 | 1014.8 |
| 20260507213804 | 65 | 122 | 0.0 | 1.7 | 0.00 | 0.00 | 0.00 | 53 | 1014.7 |
| 20260507213604 | 65 | 123 | 0.0 | 1.7 | 0.00 | 0.00 | 0.00 | 52 | 1014.5 |
| 20260507213404 | 65 | 131 | 0.0 | 1.7 | 0.00 | 0.00 | 0.00 | 52 | 1014.9 |
| 20260507213204 | 65 | 123 | 0.0 | 1.7 | 0.00 | 0.00 | 0.00 | 52 | 1014.8 |
| 20260507213005 | 65 | 121 | 0.0 | 1.7 | 0.00 | 0.00 | 0.00 | 53 | 1014.8 |
| 20260507212804 | 65 | 99 | 0.0 | 1.7 | 0.00 | 0.00 | 0.00 | 53 | 1015.0 |
| 20260507212604 | 65 | 99 | 0.0 | 2.6 | 0.00 | 0.00 | 0.00 | 53 | 1014.8 |
| 20260507212404 | 65 | 93 | 0.0 | 2.6 | 0.00 | 0.00 | 0.00 | 53 | 1014.8 |
| 20260507212204 | 65 | 98 | 0.0 | 2.6 | 0.00 | 0.00 | 0.00 | 52 | 1014.8 |
| 20260507212004 | 65 | 87 | 0.0 | 2.6 | 0.00 | 0.00 | 0.00 | 52 | 1014.8 |
| 20260507211805 | 65 | 102 | 0.0 | 2.6 | 0.00 | 0.00 | 0.00 | 52 | 1014.8 |
| 20260507211604 | 65 | 138 | 0.0 | 1.7 | 0.00 | 0.00 | 0.00 | 52 | 1014.8 |
| 20260507211404 | 65 | 248 | 0.0 | 1.7 | 0.00 | 0.00 | 0.00 | 52 | 1014.9 |
| 20260507211205 | 65 | 0 | 0.0 | 0.0 | 0.00 | 0.00 | 0.00 | 52 | 1014.8 |
| 20260507210604 | 65 | 0 | 0.0 | 0.0 | 0.00 | 0.00 | 0.00 | 51 | 1014.8 |
| 20260507210404 | 65 | 0 | 0.0 | 0.0 | 0.00 | 0.00 | 0.00 | 51 | 1014.8 |
| 20260507210204 | 65 | 0 | 0.0 | 0.0 | 0.00 | 0.00 | 0.00 | 51 | 1014.9 |
| 20260507210006 | 65 | 0 | 0.0 | 0.0 | 0.00 | 0.00 | 0.00 | 51 | 1014.8 |
| 20260507205804 | 66 | 248 | 0.0 | 0.9 | 0.00 | 0.00 | 0.00 | 51 | 1014.9 |
| 20260507205204 | 66 | 248 | 0.0 | 0.9 | 0.00 | 0.00 | 0.00 | 51 | 1014.8 |
| 20260507205005 | 65 | 248 | 0.0 | 0.9 | 0.00 | 0.00 | 0.00 | 51 | 1014.7 |
| 20260507204804 | 65 | 0 | 0.0 | 0.0 | 0.00 | 0.00 | 0.00 | 51 | 1014.6 |
| 20260507204604 | 66 | 0 | 0.0 | 0.0 | 0.00 | 0.00 | 0.00 | 50 | 1014.7 |
| 20260507204204 | 66 | 248 | 0.0 | 1.7 | 0.00 | 0.00 | 0.00 | 50 | 1014.9 |
| 20260507203604 | 66 | 248 | 0.0 | 1.7 | 0.00 | 0.00 | 0.00 | 51 | 1014.9 |
| 20260507203204 | 66 | 248 | 0.0 | 1.7 | 0.00 | 0.00 | 0.00 | 49 | 1014.9 |
| 20260507202805 | 66 | 248 | 0.0 | 1.7 | 0.00 | 0.00 | 0.00 | 49 | 1014.8 |
| 20260507202604 | 66 | 249 | 0.0 | 1.7 | 0.00 | 0.00 | 0.00 | 49 | 1014.7 |
| 20260507202204 | 67 | 236 | 0.0 | 1.7 | 0.00 | 0.00 | 0.00 | 49 | 1014.7 |
| 20260507202005 | 66 | 228 | 0.0 | 1.7 | 0.00 | 0.00 | 0.00 | 49 | 1014.7 |
| 20260507201804 | 66 | 231 | 0.0 | 1.7 | 0.00 | 0.00 | 0.00 | 49 | 1014.8 |
| 20260507201604 | 67 | 235 | 0.0 | 2.6 | 0.00 | 0.00 | 0.00 | 49 | 1014.8 |
| 20260507201405 | 67 | 238 | 0.0 | 2.6 | 0.00 | 0.00 | 0.00 | 49 | 1015.0 |
| 20260507201205 | 66 | 245 | 0.0 | 2.6 | 0.00 | 0.00 | 0.00 | 49 | 1014.7 |
| 20260507201004 | 67 | 249 | 0.9 | 2.6 | 0.00 | 0.00 | 0.00 | 49 | 1014.7 |
| 20260507200804 | 67 | 246 | 0.0 | 2.6 | 0.00 | 0.00 | 0.00 | 49 | 1014.7 |
| 20260507200604 | 67 | 248 | 0.0 | 2.6 | 0.00 | 0.00 | 0.00 | 49 | 1014.7 |
| 20260507200405 | 67 | 247 | 0.0 | 2.6 | 0.00 | 0.00 | 0.00 | 49 | 1014.8 |
| 20260507200204 | 67 | 243 | 0.0 | 2.6 | 0.00 | 0.00 | 0.00 | 49 | 1014.6 |
| 20260507200005 | 67 | 220 | 0.0 | 1.7 | 0.00 | 0.00 | 0.00 | 49 | 1014.8 |
| 20260507195805 | 67 | 217 | 0.0 | 2.6 | 0.00 | 0.00 | 0.00 | 49 | 1014.5 |
| 20260507195604 | 67 | 219 | 0.9 | 2.6 | 0.00 | 0.00 | 0.00 | 49 | 1014.6 |
| 20260507195404 | 66 | 220 | 0.9 | 2.6 | 0.00 | 0.00 | 0.00 | 49 | 1014.6 |
| 20260507195204 | 67 | 218 | 0.9 | 2.6 | 0.00 | 0.00 | 0.00 | 49 | 1014.7 |
| 20260507195005 | 67 | 228 | 0.9 | 2.6 | 0.00 | 0.00 | 0.00 | 49 | 1014.7 |
| 20260507194805 | 66 | 235 | 0.9 | 2.6 | 0.00 | 0.00 | 0.00 | 49 | 1014.6 |
| 20260507194404 | 66 | 43 | 0.0 | 2.6 | 0.00 | 0.00 | 0.00 | 49 | 1014.7 |
| 20260507194004 | 66 | 35 | 0.0 | 2.6 | 0.00 | 0.00 | 0.00 | 50 | 1014.5 |
| 20260507193405 | 67 | 53 | 0.0 | 1.7 | 0.00 | 0.00 | 0.00 | 49 | 1014.5 |
| 20260507193204 | 66 | 61 | 0.0 | 1.7 | 0.00 | 0.00 | 0.00 | 49 | 1014.4 |
| 20260507193005 | 66 | 80 | 0.0 | 1.7 | 0.00 | 0.00 | 0.00 | 49 | 1014.5 |
| 20260507192805 | 66 | 77 | 0.0 | 1.7 | 0.00 | 0.00 | 0.00 | 49 | 1014.6 |
| 20260507192604 | 66 | 81 | 0.0 | 1.7 | 0.00 | 0.00 | 0.00 | 48 | 1014.7 |
| 20260507192405 | 67 | 81 | 0.0 | 1.7 | 0.00 | 0.00 | 0.00 | 49 | 1014.6 |
| 20260507192204 | 66 | 120 | 0.0 | 1.7 | 0.00 | 0.00 | 0.00 | 48 | 1014.6 |
| 20260507192005 | 67 | 135 | 0.0 | 1.7 | 0.00 | 0.00 | 0.00 | 49 | 1014.3 |
| 20260507191804 | 66 | 135 | 0.0 | 1.7 | 0.00 | 0.00 | 0.00 | 49 | 1014.7 |
| 20260507191605 | 66 | 123 | 0.0 | 1.7 | 0.00 | 0.00 | 0.00 | 49 | 1014.3 |
| 20260507191205 | 67 | 94 | 0.0 | 1.7 | 0.00 | 0.00 | 0.00 | 49 | 1014.5 |
| 20260507191004 | 67 | 99 | 0.9 | 1.7 | 0.00 | 0.00 | 0.00 | 49 | 1014.6 |
| 20260507190604 | 67 | 102 | 0.0 | 1.7 | 0.00 | 0.00 | 0.00 | 50 | 1014.3 |
| 20260507190405 | 67 | 123 | 0.0 | 2.6 | 0.00 | 0.00 | 0.00 | 49 | 1014.5 |
| 20260507185804 | 67 | 82 | 0.0 | 3.5 | 0.00 | 0.00 | 0.00 | 50 | 1014.4 |
| 20260507185604 | 67 | 59 | 0.9 | 3.5 | 0.00 | 0.00 | 0.00 | 50 | 1014.7 |
| 20260507185004 | 67 | 47 | 0.0 | 3.5 | 0.00 | 0.00 | 0.00 | 50 | 1014.6 |
| 20260507184804 | 67 | 56 | 0.0 | 3.5 | 0.00 | 0.00 | 0.00 | 51 | 1014.6 |
| 20260507184404 | 67 | 77 | 0.0 | 1.7 | 0.00 | 0.00 | 0.00 | 50 | 1014.6 |
| 20260507184204 | 67 | 79 | 0.0 | 2.6 | 0.00 | 0.00 | 0.00 | 50 | 1014.7 |
| 20260507183604 | 68 | 13 | 0.0 | 2.6 | 0.00 | 0.00 | 0.00 | 50 | 1014.4 |
| 20260507183405 | 68 | 8 | 0.0 | 2.6 | 0.00 | 0.00 | 0.00 | 49 | 1014.5 |
| 20260507183204 | 68 | 351 | 0.0 | 2.6 | 0.00 | 0.00 | 0.00 | 49 | 1014.3 |
| 20260507182804 | 68 | 194 | 0.0 | 1.7 | 0.00 | 0.00 | 0.00 | 49 | 1014.5 |
| 20260507182604 | 68 | 148 | 0.0 | 1.7 | 0.00 | 0.00 | 0.00 | 49 | 1014.4 |
| 20260507182405 | 68 | 92 | 0.0 | 1.7 | 0.00 | 0.00 | 0.00 | 48 | 1014.3 |
| 20260507182204 | 68 | 92 | 0.0 | 1.7 | 0.00 | 0.00 | 0.00 | 48 | 1014.3 |
| 20260507182005 | 68 | 89 | 0.0 | 1.7 | 0.00 | 0.00 | 0.00 | 49 | 1014.3 |
| 20260507181804 | 68 | 90 | 0.0 | 1.7 | 0.00 | 0.00 | 0.00 | 48 | 1014.2 |
| 20260507181604 | 68 | 93 | 0.0 | 1.7 | 0.00 | 0.00 | 0.00 | 49 | 1014.3 |
| 20260507181004 | 68 | 104 | 0.0 | 1.7 | 0.00 | 0.00 | 0.00 | 48 | 1014.4 |
| 20260507180804 | 68 | 106 | 0.0 | 2.6 | 0.00 | 0.00 | 0.00 | 48 | 1014.5 |
| 20260507180604 | 68 | 104 | 0.0 | 2.6 | 0.00 | 0.00 | 0.00 | 49 | 1014.5 |
| 20260507180404 | 68 | 104 | 0.0 | 2.6 | 0.00 | 0.00 | 0.00 | 49 | 1014.2 |
| 20260507180204 | 68 | 102 | 0.0 | 2.6 | 0.00 | 0.00 | 0.00 | 49 | 1014.3 |
| 20260507180004 | 68 | 108 | 0.0 | 2.6 | 0.00 | 0.00 | 0.00 | 49 | 1014.1 |
| 20260507175804 | 68 | 106 | 0.0 | 2.6 | 0.00 | 0.00 | 0.00 | 49 | 1014.3 |
| 20260507175604 | 68 | 106 | 0.0 | 2.6 | 0.00 | 0.00 | 0.00 | 49 | 1014.3 |
| 20260507175404 | 68 | 125 | 0.0 | 2.6 | 0.00 | 0.00 | 0.00 | 49 | 1014.2 |
| 20260507175204 | 68 | 135 | 0.0 | 1.7 | 0.00 | 0.00 | 0.00 | 49 | 1014.3 |
| 20260507175004 | 68 | 152 | 0.0 | 2.6 | 0.00 | 0.00 | 0.00 | 49 | 1014.2 |
| 20260507174605 | 69 | 151 | 0.0 | 3.5 | 0.00 | 0.00 | 0.00 | 49 | 1014.2 |
| 20260507174204 | 69 | 219 | 0.0 | 3.5 | 0.00 | 0.00 | 0.00 | 49 | 1014.1 |
| 20260507174004 | 68 | 345 | 0.9 | 5.2 | 0.00 | 0.00 | 0.00 | 48 | 1014.2 |
| 20260507173804 | 68 | 343 | 0.9 | 5.2 | 0.00 | 0.00 | 0.00 | 49 | 1014.3 |
| 20260507173604 | 69 | 353 | 0.9 | 5.2 | 0.00 | 0.00 | 0.00 | 50 | 1014.5 |
| 20260507173405 | 68 | 334 | 1.7 | 5.2 | 0.00 | 0.00 | 0.00 | 50 | 1014.3 |
| 20260507173005 | 69 | 328 | 0.9 | 4.3 | 0.00 | 0.00 | 0.00 | 50 | 1014.2 |
| 20260507172804 | 69 | 320 | 0.9 | 3.5 | 0.00 | 0.00 | 0.00 | 51 | 1014.3 |
| 20260507172604 | 69 | 317 | 0.9 | 3.5 | 0.00 | 0.00 | 0.00 | 51 | 1014.2 |
| 20260507172404 | 69 | 316 | 0.9 | 3.5 | 0.00 | 0.00 | 0.00 | 51 | 1014.2 |
| 20260507172204 | 69 | 320 | 1.7 | 4.3 | 0.00 | 0.00 | 0.00 | 51 | 1014.2 |
| 20260507172005 | 69 | 305 | 1.7 | 4.3 | 0.00 | 0.00 | 0.00 | 51 | 1014.2 |
| 20260507171804 | 69 | 302 | 1.7 | 4.3 | 0.00 | 0.00 | 0.00 | 51 | 1014.1 |
| 20260507171605 | 69 | 305 | 1.7 | 6.1 | 0.00 | 0.00 | 0.00 | 50 | 1014.2 |
| 20260507171404 | 69 | 315 | 2.6 | 6.1 | 0.00 | 0.00 | 0.00 | 50 | 1014.0 |
| 20260507171205 | 69 | 310 | 1.7 | 6.1 | 0.00 | 0.00 | 0.00 | 50 | 1014.1 |
| 20260507171004 | 69 | 305 | 1.7 | 6.1 | 0.00 | 0.00 | 0.00 | 50 | 1014.1 |
| 20260507170604 | 70 | 293 | 1.7 | 5.2 | 0.00 | 0.00 | 0.00 | 48 | 1013.9 |
| 20260507170404 | 70 | 279 | 1.7 | 4.3 | 0.00 | 0.00 | 0.00 | 48 | 1013.8 |
| 20260507170204 | 70 | 275 | 1.7 | 4.3 | 0.00 | 0.00 | 0.00 | 47 | 1013.6 |
| 20260507170005 | 70 | 271 | 1.7 | 4.3 | 0.00 | 0.00 | 0.00 | 47 | 1013.8 |
| 20260507165804 | 71 | 263 | 0.9 | 4.3 | 0.00 | 0.00 | 0.00 | 46 | 1013.7 |
| 20260507165604 | 71 | 239 | 0.9 | 3.5 | 0.00 | 0.00 | 0.00 | 45 | 1013.7 |
| 20260507165404 | 71 | 233 | 0.9 | 3.5 | 0.00 | 0.00 | 0.00 | 45 | 1013.8 |
| 20260507165205 | 71 | 201 | 0.0 | 2.6 | 0.00 | 0.00 | 0.00 | 44 | 1013.4 |
| 20260507165004 | 71 | 118 | 0.0 | 2.6 | 0.00 | 0.00 | 0.00 | 44 | 1013.5 |
| 20260507164805 | 71 | 60 | 0.0 | 2.6 | 0.00 | 0.00 | 0.00 | 43 | 1013.2 |
| 20260507164604 | 71 | 44 | 0.0 | 2.6 | 0.00 | 0.00 | 0.00 | 43 | 1013.3 |
| 20260507164204 | 71 | 56 | 0.9 | 3.5 | 0.00 | 0.00 | 0.00 | 42 | 1013.4 |
| 20260507164005 | 71 | 74 | 0.9 | 3.5 | 0.00 | 0.00 | 0.00 | 42 | 1013.4 |
| 20260507163604 | 72 | 107 | 0.9 | 3.5 | 0.00 | 0.00 | 0.00 | 40 | 1013.3 |
| 20260507163404 | 72 | 123 | 0.0 | 3.5 | 0.00 | 0.00 | 0.00 | 38 | 1013.6 |
| 20260507162804 | 72 | 68 | 0.9 | 3.5 | 0.00 | 0.00 | 0.00 | 35 | 1013.6 |
| 20260507162404 | 73 | 59 | 0.9 | 3.5 | 0.00 | 0.00 | 0.00 | 33 | 1013.8 |
| 20260507162204 | 73 | 57 | 0.9 | 3.5 | 0.00 | 0.00 | 0.00 | 31 | 1013.7 |
| 20260507162004 | 73 | 64 | 0.9 | 3.5 | 0.00 | 0.00 | 0.00 | 31 | 1013.8 |
| 20260507161804 | 73 | 94 | 0.0 | 3.5 | 0.00 | 0.00 | 0.00 | 26 | 1013.8 |
| 20260507161604 | 74 | 100 | 0.0 | 2.6 | 0.00 | 0.00 | 0.00 | 24 | 1013.8 |
| 20260507161204 | 74 | 117 | 0.0 | 2.6 | 0.00 | 0.00 | 0.00 | 25 | 1013.7 |
| 20260507161005 | 74 | 104 | 0.0 | 2.6 | 0.00 | 0.00 | 0.00 | 24 | 1013.8 |
| 20260507160804 | 74 | 110 | 0.0 | 2.6 | 0.00 | 0.00 | 0.00 | 23 | 1013.6 |
| 20260507160604 | 74 | 124 | 0.0 | 2.6 | 0.00 | 0.00 | 0.00 | 24 | 1013.7 |
| 20260507160404 | 74 | 118 | 0.0 | 2.6 | 0.00 | 0.00 | 0.00 | 24 | 1013.7 |
| 20260507160204 | 74 | 131 | 0.0 | 2.6 | 0.00 | 0.00 | 0.00 | 25 | 1013.6 |
| 20260507160004 | 74 | 206 | 0.9 | 3.5 | 0.00 | 0.00 | 0.00 | 24 | 1013.5 |
| 20260507155804 | 74 | 224 | 0.9 | 7.0 | 0.00 | 0.00 | 0.00 | 25 | 1013.5 |
| 20260507155604 | 74 | 220 | 1.7 | 7.0 | 0.00 | 0.00 | 0.00 | 25 | 1013.6 |
| 20260507155404 | 73 | 223 | 2.6 | 7.0 | 0.00 | 0.00 | 0.00 | 25 | 1013.6 |
| 20260507155204 | 73 | 229 | 3.5 | 8.7 | 0.00 | 0.00 | 0.00 | 25 | 1013.7 |
| 20260507155004 | 74 | 229 | 3.5 | 8.7 | 0.00 | 0.00 | 0.00 | 24 | 1013.8 |
| 20260507154804 | 74 | 241 | 4.3 | 8.7 | 0.00 | 0.00 | 0.00 | 24 | 1013.8 |
| 20260507154604 | 74 | 249 | 4.3 | 9.6 | 0.00 | 0.00 | 0.00 | 23 | 1013.8 |
| 20260507154405 | 74 | 259 | 4.3 | 9.6 | 0.00 | 0.00 | 0.00 | 23 | 1013.8 |
| 20260507154204 | 74 | 257 | 4.3 | 9.6 | 0.00 | 0.00 | 0.00 | 23 | 1013.8 |
| 20260507154004 | 75 | 254 | 4.3 | 9.6 | 0.00 | 0.00 | 0.00 | 23 | 1014.0 |
| 20260507153804 | 75 | 244 | 3.5 | 9.6 | 0.00 | 0.00 | 0.00 | 23 | 1013.9 |
| 20260507153604 | 76 | 244 | 3.5 | 8.7 | 0.00 | 0.00 | 0.00 | 22 | 1013.8 |
| 20260507153205 | 76 | 243 | 4.3 | 9.6 | 0.00 | 0.00 | 0.00 | 22 | 1013.9 |
| 20260507153004 | 76 | 248 | 4.3 | 9.6 | 0.00 | 0.00 | 0.00 | 23 | 1013.8 |
| 20260507152805 | 76 | 250 | 4.3 | 9.6 | 0.00 | 0.00 | 0.00 | 23 | 1013.9 |
| 20260507152604 | 76 | 251 | 5.2 | 10.4 | 0.00 | 0.00 | 0.00 | 23 | 1014.1 |
| 20260507152404 | 76 | 251 | 4.3 | 10.4 | 0.00 | 0.00 | 0.00 | 23 | 1013.9 |
| 20260507152204 | 76 | 251 | 4.3 | 10.4 | 0.00 | 0.00 | 0.00 | 23 | 1014.2 |
| 20260507152004 | 76 | 254 | 4.3 | 10.4 | 0.00 | 0.00 | 0.00 | 22 | 1014.0 |
| 20260507151805 | 76 | 253 | 4.3 | 10.4 | 0.00 | 0.00 | 0.00 | 23 | 1013.9 |
| 20260507151604 | 76 | 253 | 4.3 | 9.6 | 0.00 | 0.00 | 0.00 | 24 | 1014.0 |
| 20260507151404 | 76 | 252 | 4.3 | 9.6 | 0.00 | 0.00 | 0.00 | 24 | 1014.0 |
| 20260507151204 | 76 | 246 | 4.3 | 9.6 | 0.00 | 0.00 | 0.00 | 24 | 1014.0 |
| 20260507151004 | 75 | 247 | 5.2 | 9.6 | 0.00 | 0.00 | 0.00 | 25 | 1014.0 |
| 20260507150804 | 75 | 247 | 6.1 | 11.3 | 0.00 | 0.00 | 0.00 | 25 | 1014.0 |
| 20260507150604 | 75 | 249 | 6.1 | 11.3 | 0.00 | 0.00 | 0.00 | 25 | 1014.0 |
| 20260507150204 | 75 | 254 | 7.0 | 11.3 | 0.00 | 0.00 | 0.00 | 25 | 1014.0 |
| 20260507150005 | 75 | 253 | 6.1 | 11.3 | 0.00 | 0.00 | 0.00 | 25 | 1014.1 |
| 20260507145804 | 75 | 254 | 5.2 | 11.3 | 0.00 | 0.00 | 0.00 | 22 | 1014.0 |
| 20260507145604 | 76 | 255 | 5.2 | 10.4 | 0.00 | 0.00 | 0.00 | 23 | 1014.0 |
| 20260507145405 | 76 | 257 | 5.2 | 10.4 | 0.00 | 0.00 | 0.00 | 25 | 1014.0 |
| 20260507145204 | 76 | 258 | 5.2 | 10.4 | 0.00 | 0.00 | 0.00 | 25 | 1014.1 |
| 20260507145004 | 76 | 261 | 6.1 | 10.4 | 0.00 | 0.00 | 0.00 | 24 | 1013.9 |
| 20260507144804 | 76 | 260 | 6.1 | 10.4 | 0.00 | 0.00 | 0.00 | 24 | 1014.0 |
| 20260507144604 | 76 | 257 | 6.1 | 10.4 | 0.00 | 0.00 | 0.00 | 23 | 1013.9 |
| 20260507144405 | 76 | 261 | 6.1 | 13.0 | 0.00 | 0.00 | 0.00 | 23 | 1013.8 |
| 20260507144204 | 76 | 262 | 6.1 | 13.0 | 0.00 | 0.00 | 0.00 | 23 | 1014.0 |
| 20260507144004 | 76 | 250 | 5.2 | 13.0 | 0.00 | 0.00 | 0.00 | 23 | 1014.2 |
| 20260507143804 | 76 | 253 | 5.2 | 13.0 | 0.00 | 0.00 | 0.00 | 24 | 1013.9 |
| 20260507143604 | 76 | 255 | 5.2 | 13.0 | 0.00 | 0.00 | 0.00 | 23 | 1013.9 |
| 20260507143404 | 76 | 245 | 4.3 | 13.0 | 0.00 | 0.00 | 0.00 | 23 | 1013.8 |
| 20260507143204 | 77 | 231 | 4.3 | 10.4 | 0.00 | 0.00 | 0.00 | 24 | 1014.0 |
| 20260507143005 | 77 | 237 | 4.3 | 10.4 | 0.00 | 0.00 | 0.00 | 25 | 1014.1 |
| 20260507142804 | 77 | 236 | 4.3 | 12.2 | 0.00 | 0.00 | 0.00 | 25 | 1014.0 |
| 20260507142204 | 76 | 250 | 6.1 | 13.0 | 0.00 | 0.00 | 0.00 | 25 | 1013.8 |
| 20260507142004 | 76 | 244 | 6.1 | 13.0 | 0.00 | 0.00 | 0.00 | 25 | 1013.8 |
| 20260507141804 | 76 | 245 | 6.1 | 13.0 | 0.00 | 0.00 | 0.00 | 25 | 1014.0 |
| 20260507141604 | 76 | 239 | 5.2 | 13.0 | 0.00 | 0.00 | 0.00 | 25 | 1013.8 |
| 20260507141404 | 77 | 239 | 5.2 | 13.0 | 0.00 | 0.00 | 0.00 | 24 | 1013.8 |
| 20260507141205 | 77 | 227 | 5.2 | 13.0 | 0.00 | 0.00 | 0.00 | 23 | 1014.0 |
| 20260507141004 | 77 | 236 | 5.2 | 12.2 | 0.00 | 0.00 | 0.00 | 23 | 1013.9 |
| 20260507140804 | 77 | 234 | 5.2 | 12.2 | 0.00 | 0.00 | 0.00 | 23 | 1013.8 |
| 20260507140604 | 78 | 232 | 5.2 | 12.2 | 0.00 | 0.00 | 0.00 | 23 | 1013.6 |
| 20260507140404 | 78 | 242 | 6.1 | 12.2 | 0.00 | 0.00 | 0.00 | 22 | 1013.8 |
| 20260507140205 | 78 | 247 | 6.1 | 12.2 | 0.00 | 0.00 | 0.00 | 22 | 1013.4 |
| 20260507140006 | 78 | 256 | 5.2 | 12.2 | 0.00 | 0.00 | 0.00 | 21 | 1013.5 |
| 20260507135804 | 79 | 257 | 5.2 | 11.3 | 0.00 | 0.00 | 0.00 | 22 | 1013.6 |
| 20260507135605 | 78 | 262 | 5.2 | 13.0 | 0.00 | 0.00 | 0.00 | 22 | 1013.5 |
| 20260507135404 | 79 | 259 | 5.2 | 13.0 | 0.00 | 0.00 | 0.00 | 22 | 1013.4 |
| 20260507135205 | 78 | 264 | 5.2 | 13.0 | 0.00 | 0.00 | 0.00 | 21 | 1013.7 |
| 20260507135005 | 79 | 259 | 5.2 | 13.0 | 0.00 | 0.00 | 0.00 | 21 | 1013.5 |
| 20260507134804 | 79 | 258 | 5.2 | 13.0 | 0.00 | 0.00 | 0.00 | 21 | 1013.5 |
| 20260507134605 | 79 | 258 | 5.2 | 13.0 | 0.00 | 0.00 | 0.00 | 21 | 1013.5 |
| 20260507134404 | 78 | 255 | 5.2 | 11.3 | 0.00 | 0.00 | 0.00 | 22 | 1013.5 |
| 20260507134005 | 79 | 248 | 5.2 | 11.3 | 0.00 | 0.00 | 0.00 | 20 | 1013.5 |
| 20260507133804 | 79 | 244 | 4.3 | 10.4 | 0.00 | 0.00 | 0.00 | 20 | 1013.4 |
| 20260507133605 | 79 | 246 | 4.3 | 10.4 | 0.00 | 0.00 | 0.00 | 19 | 1013.6 |
| 20260507133204 | 79 | 248 | 4.3 | 10.4 | 0.00 | 0.00 | 0.00 | 21 | 1013.6 |
| 20260507133004 | 78 | 249 | 5.2 | 11.3 | 0.00 | 0.00 | 0.00 | 20 | 1013.3 |
| 20260507132808 | 78 | 251 | 5.2 | 11.3 | 0.00 | 0.00 | 0.00 | 21 | 1013.4 |
| 20260507132605 | 78 | 249 | 4.3 | 11.3 | 0.00 | 0.00 | 0.00 | 20 | 1013.6 |
| 20260507132404 | 78 | 250 | 5.2 | 11.3 | 0.00 | 0.00 | 0.00 | 19 | 1013.3 |
| 20260507132204 | 78 | 253 | 4.3 | 11.3 | 0.00 | 0.00 | 0.00 | 19 | 1013.4 |
| 20260507131804 | 78 | 259 | 4.3 | 8.7 | 0.00 | 0.00 | 0.00 | 20 | 1013.4 |
| 20260507131605 | 78 | 260 | 4.3 | 8.7 | 0.00 | 0.00 | 0.00 | 19 | 1013.4 |
| 20260507131404 | 78 | 256 | 4.3 | 8.7 | 0.00 | 0.00 | 0.00 | 18 | 1013.6 |
| 20260507131005 | 79 | 254 | 3.5 | 8.7 | 0.00 | 0.00 | 0.00 | 20 | 1013.4 |
| 20260507130804 | 78 | 250 | 2.6 | 8.7 | 0.00 | 0.00 | 0.00 | 23 | 1013.4 |
| 20260507130604 | 79 | 256 | 2.6 | 8.7 | 0.00 | 0.00 | 0.00 | 22 | 1013.7 |
| 20260507130205 | 78 | 257 | 2.6 | 7.0 | 0.00 | 0.00 | 0.00 | 25 | 1013.5 |
| 20260507130004 | 78 | 257 | 3.5 | 7.0 | 0.00 | 0.00 | 0.00 | 27 | 1013.7 |
| 20260507125804 | 77 | 259 | 3.5 | 7.8 | 0.00 | 0.00 | 0.00 | 27 | 1013.7 |
| 20260507125605 | 77 | 256 | 3.5 | 9.6 | 0.00 | 0.00 | 0.00 | 27 | 1013.9 |
| 20260507125404 | 76 | 253 | 4.3 | 9.6 | 0.00 | 0.00 | 0.00 | 25 | 1013.6 |
| 20260507125205 | 76 | 251 | 4.3 | 9.6 | 0.00 | 0.00 | 0.00 | 26 | 1013.8 |
| 20260507125004 | 76 | 251 | 4.3 | 9.6 | 0.00 | 0.00 | 0.00 | 27 | 1013.9 |
| 20260507124804 | 76 | 253 | 4.3 | 9.6 | 0.00 | 0.00 | 0.00 | 28 | 1014.0 |
| 20260507124604 | 76 | 257 | 4.3 | 9.6 | 0.00 | 0.00 | 0.00 | 27 | 1013.9 |
| 20260507124405 | 76 | 255 | 4.3 | 9.6 | 0.00 | 0.00 | 0.00 | 27 | 1014.1 |
| 20260507124204 | 76 | 256 | 4.3 | 9.6 | 0.00 | 0.00 | 0.00 | 27 | 1014.1 |
| 20260507124004 | 77 | 257 | 4.3 | 9.6 | 0.00 | 0.00 | 0.00 | 26 | 1014.0 |
| 20260507123404 | 77 | 248 | 4.3 | 9.6 | 0.00 | 0.00 | 0.00 | 24 | 1014.2 |
| 20260507123204 | 77 | 246 | 3.5 | 9.6 | 0.00 | 0.00 | 0.00 | 22 | 1014.1 |
| 20260507123004 | 77 | 239 | 3.5 | 9.6 | 0.00 | 0.00 | 0.00 | 26 | 1013.9 |
| 20260507122804 | 77 | 238 | 4.3 | 11.3 | 0.00 | 0.00 | 0.00 | 25 | 1013.9 |
| 20260507122604 | 77 | 244 | 4.3 | 11.3 | 0.00 | 0.00 | 0.00 | 25 | 1014.1 |
| 20260507122205 | 77 | 243 | 5.2 | 11.3 | 0.00 | 0.00 | 0.00 | 23 | 1014.1 |
| 20260507121604 | 78 | 252 | 5.2 | 12.2 | 0.00 | 0.00 | 0.00 | 22 | 1014.2 |
| 20260507121404 | 78 | 262 | 5.2 | 12.2 | 0.00 | 0.00 | 0.00 | 21 | 1014.2 |
| 20260507121204 | 78 | 258 | 5.2 | 14.8 | 0.00 | 0.00 | 0.00 | 22 | 1014.3 |
| 20260507121005 | 78 | 265 | 6.1 | 14.8 | 0.00 | 0.00 | 0.00 | 21 | 1014.1 |
| 20260507120804 | 78 | 275 | 6.1 | 14.8 | 0.00 | 0.00 | 0.00 | 20 | 1014.3 |
| 20260507120604 | 78 | 278 | 6.1 | 14.8 | 0.00 | 0.00 | 0.00 | 23 | 1014.0 |
| 20260507120204 | 78 | 273 | 6.1 | 14.8 | 0.00 | 0.00 | 0.00 | 20 | 1014.1 |
| 20260507115804 | 79 | 258 | 6.1 | 11.3 | 0.00 | 0.00 | 0.00 | 21 | 1014.2 |
| 20260507115604 | 79 | 257 | 6.1 | 11.3 | 0.00 | 0.00 | 0.00 | 22 | 1014.1 |
| 20260507115404 | 78 | 254 | 6.1 | 12.2 | 0.00 | 0.00 | 0.00 | 21 | 1014.2 |
| 20260507115205 | 78 | 257 | 6.1 | 12.2 | 0.00 | 0.00 | 0.00 | 18 | 1014.1 |
| 20260507114804 | 78 | 246 | 5.2 | 12.2 | 0.00 | 0.00 | 0.00 | 22 | 1014.2 |
| 20260507114604 | 79 | 253 | 5.2 | 12.2 | 0.00 | 0.00 | 0.00 | 21 | 1014.1 |
| 20260507114409 | 78 | 262 | 5.2 | 11.3 | 0.00 | 0.00 | 0.00 | 20 | 1014.1 |
| 20260507114204 | 79 | 255 | 4.3 | 11.3 | 0.00 | 0.00 | 0.00 | 23 | 1014.2 |
| 20260507114005 | 78 | 260 | 5.2 | 12.2 | 0.00 | 0.00 | 0.00 | 25 | 1014.3 |
| 20260507113804 | 78 | 252 | 5.2 | 13.0 | 0.00 | 0.00 | 0.00 | 27 | 1014.2 |
| 20260507113605 | 78 | 248 | 6.1 | 13.0 | 0.00 | 0.00 | 0.00 | 31 | 1014.1 |
| 20260507113404 | 77 | 255 | 7.0 | 14.8 | 0.00 | 0.00 | 0.00 | 32 | 1014.2 |
| 20260507113205 | 77 | 257 | 7.8 | 14.8 | 0.00 | 0.00 | 0.00 | 34 | 1014.4 |
| 20260507112804 | 78 | 265 | 7.8 | 14.8 | 0.00 | 0.00 | 0.00 | 36 | 1014.0 |
| 20260507112604 | 78 | 264 | 7.0 | 14.8 | 0.00 | 0.00 | 0.00 | 33 | 1014.4 |
| 20260507112405 | 78 | 263 | 7.0 | 14.8 | 0.00 | 0.00 | 0.00 | 31 | 1014.3 |
| 20260507112204 | 78 | 261 | 7.0 | 14.8 | 0.00 | 0.00 | 0.00 | 32 | 1014.3 |
| 20260507112004 | 78 | 261 | 7.0 | 14.8 | 0.00 | 0.00 | 0.00 | 32 | 1014.5 |
| 20260507111804 | 78 | 245 | 7.0 | 16.5 | 0.00 | 0.00 | 0.00 | 32 | 1014.4 |
| 20260507111604 | 79 | 242 | 7.0 | 16.5 | 0.00 | 0.00 | 0.00 | 32 | 1014.4 |
| 20260507111405 | 79 | 236 | 7.8 | 16.5 | 0.00 | 0.00 | 0.00 | 30 | 1014.2 |
| 20260507111204 | 79 | 236 | 7.0 | 16.5 | 0.00 | 0.00 | 0.00 | 26 | 1014.2 |
| 20260507111005 | 78 | 241 | 6.1 | 16.5 | 0.00 | 0.00 | 0.00 | 23 | 1013.9 |
| 20260507110804 | 79 | 258 | 5.2 | 14.8 | 0.00 | 0.00 | 0.00 | 27 | 1014.1 |
| 20260507110604 | 78 | 261 | 5.2 | 14.8 | 0.00 | 0.00 | 0.00 | 28 | 1014.0 |
| 20260507110404 | 79 | 260 | 4.3 | 14.8 | 0.00 | 0.00 | 0.00 | 32 | 1013.9 |
| 20260507110204 | 79 | 259 | 5.2 | 14.8 | 0.00 | 0.00 | 0.00 | 33 | 1013.9 |
| 20260507110005 | 79 | 259 | 5.2 | 14.8 | 0.00 | 0.00 | 0.00 | 30 | 1014.1 |
| 20260507105804 | 79 | 247 | 5.2 | 14.8 | 0.00 | 0.00 | 0.00 | 28 | 1014.1 |
| 20260507105404 | 78 | 265 | 5.2 | 14.8 | 0.00 | 0.00 | 0.00 | 26 | 1014.0 |
| 20260507105004 | 79 | 269 | 4.3 | 9.6 | 0.00 | 0.00 | 0.00 | 30 | 1014.3 |
| 20260507104804 | 79 | 270 | 5.2 | 12.2 | 0.00 | 0.00 | 0.00 | 29 | 1014.1 |
| 20260507104604 | 79 | 261 | 5.2 | 12.2 | 0.00 | 0.00 | 0.00 | 28 | 1014.1 |
| 20260507104405 | 79 | 255 | 5.2 | 12.2 | 0.00 | 0.00 | 0.00 | 31 | 1014.1 |
| 20260507104004 | 77 | 250 | 6.1 | 12.2 | 0.00 | 0.00 | 0.00 | 34 | 1014.1 |
| 20260507103804 | 78 | 244 | 4.3 | 12.2 | 0.00 | 0.00 | 0.00 | 35 | 1013.9 |
| 20260507103604 | 78 | 250 | 4.3 | 9.6 | 0.00 | 0.00 | 0.00 | 39 | 1014.0 |
| 20260507103404 | 78 | 242 | 3.5 | 9.6 | 0.00 | 0.00 | 0.00 | 38 | 1013.8 |
| 20260507103204 | 79 | 248 | 2.6 | 8.7 | 0.00 | 0.00 | 0.00 | 38 | 1013.8 |
| 20260507103004 | 79 | 238 | 2.6 | 8.7 | 0.00 | 0.00 | 0.00 | 34 | 1013.7 |
| 20260507102804 | 79 | 234 | 3.5 | 8.7 | 0.00 | 0.00 | 0.00 | 44 | 1013.7 |
| 20260507102604 | 78 | 248 | 3.5 | 8.7 | 0.00 | 0.00 | 0.00 | 43 | 1013.9 |
| 20260507102404 | 78 | 253 | 3.5 | 8.7 | 0.00 | 0.00 | 0.00 | 45 | 1013.9 |
| 20260507102204 | 78 | 222 | 3.5 | 8.7 | 0.00 | 0.00 | 0.00 | 47 | 1013.8 |
| 20260507101604 | 78 | 239 | 2.6 | 7.8 | 0.00 | 0.00 | 0.00 | 48 | 1013.9 |
| 20260507101404 | 78 | 227 | 3.5 | 9.6 | 0.00 | 0.00 | 0.00 | 49 | 1013.8 |
| 20260507101204 | 78 | 240 | 3.5 | 9.6 | 0.00 | 0.00 | 0.00 | 52 | 1014.0 |
| 20260507101004 | 77 | 240 | 4.3 | 9.6 | 0.00 | 0.00 | 0.00 | 51 | 1014.0 |
| 20260507100604 | 77 | 246 | 4.3 | 9.6 | 0.00 | 0.00 | 0.00 | 54 | 1013.9 |
| 20260507100404 | 78 | 255 | 4.3 | 9.6 | 0.00 | 0.00 | 0.00 | 52 | 1013.9 |
| 20260507100204 | 77 | 257 | 3.5 | 7.8 | 0.00 | 0.00 | 0.00 | 52 | 1014.0 |
| 20260507095804 | 77 | 254 | 3.5 | 8.7 | 0.00 | 0.00 | 0.00 | 54 | 1014.2 |
| 20260507095604 | 76 | 253 | 3.5 | 8.7 | 0.00 | 0.00 | 0.00 | 55 | 1014.1 |
| 20260507095404 | 77 | 253 | 3.5 | 8.7 | 0.00 | 0.00 | 0.00 | 55 | 1014.0 |
| 20260507095004 | 77 | 253 | 3.5 | 8.7 | 0.00 | 0.00 | 0.00 | 55 | 1014.2 |
| 20260507094804 | 77 | 250 | 3.5 | 7.8 | 0.00 | 0.00 | 0.00 | 54 | 1013.9 |
| 20260507094604 | 77 | 248 | 3.5 | 8.7 | 0.00 | 0.00 | 0.00 | 54 | 1014.2 |
| 20260507094405 | 77 | 245 | 4.3 | 10.4 | 0.00 | 0.00 | 0.00 | 52 | 1013.9 |
| 20260507094205 | 77 | 243 | 4.3 | 10.4 | 0.00 | 0.00 | 0.00 | 51 | 1014.1 |
| 20260507094004 | 77 | 246 | 4.3 | 10.4 | 0.00 | 0.00 | 0.00 | 52 | 1013.8 |
| 20260507093804 | 77 | 249 | 4.3 | 10.4 | 0.00 | 0.00 | 0.00 | 52 | 1013.9 |
| 20260507093605 | 77 | 252 | 4.3 | 10.4 | 0.00 | 0.00 | 0.00 | 51 | 1013.9 |
| 20260507093404 | 78 | 258 | 3.5 | 8.7 | 0.00 | 0.00 | 0.00 | 50 | 1014.0 |
| 20260507093005 | 78 | 238 | 3.5 | 9.6 | 0.00 | 0.00 | 0.00 | 47 | 1014.0 |
| 20260507092804 | 78 | 230 | 3.5 | 9.6 | 0.00 | 0.00 | 0.00 | 46 | 1013.8 |
| 20260507092404 | 78 | 236 | 2.6 | 9.6 | 0.00 | 0.00 | 0.00 | 45 | 1014.0 |
| 20260507092005 | 78 | 273 | 2.6 | 6.1 | 0.00 | 0.00 | 0.00 | 45 | 1014.0 |
| 20260507091604 | 78 | 276 | 2.6 | 6.1 | 0.00 | 0.00 | 0.00 | 45 | 1013.9 |
| 20260507091204 | 78 | 267 | 2.6 | 6.1 | 0.00 | 0.00 | 0.00 | 45 | 1014.0 |
| 20260507091004 | 77 | 261 | 2.6 | 6.1 | 0.00 | 0.00 | 0.00 | 45 | 1013.9 |
| 20260507090805 | 77 | 243 | 2.6 | 7.0 | 0.00 | 0.00 | 0.00 | 45 | 1014.2 |
| 20260507090604 | 77 | 251 | 2.6 | 7.0 | 0.00 | 0.00 | 0.00 | 45 | 1014.0 |
| 20260507090404 | 77 | 247 | 2.6 | 7.0 | 0.00 | 0.00 | 0.00 | 45 | 1014.1 |
| 20260507090005 | 77 | 241 | 2.6 | 7.0 | 0.00 | 0.00 | 0.00 | 44 | 1014.0 |
| 20260507085804 | 78 | 231 | 1.7 | 7.0 | 0.00 | 0.00 | 0.00 | 44 | 1014.0 |
| 20260507085604 | 77 | 227 | 1.7 | 6.1 | 0.00 | 0.00 | 0.00 | 43 | 1013.9 |
| 20260507085404 | 77 | 223 | 1.7 | 6.1 | 0.00 | 0.00 | 0.00 | 43 | 1014.2 |
| 20260507085204 | 77 | 223 | 2.6 | 5.2 | 0.00 | 0.00 | 0.00 | 42 | 1014.0 |
| 20260507085004 | 77 | 226 | 1.7 | 5.2 | 0.00 | 0.00 | 0.00 | 42 | 1014.0 |
| 20260507084605 | 78 | 217 | 1.7 | 5.2 | 0.00 | 0.00 | 0.00 | 40 | 1014.3 |
| 20260507084404 | 79 | 217 | 0.9 | 5.2 | 0.00 | 0.00 | 0.00 | 40 | 1014.4 |
| 20260507084204 | 79 | 216 | 0.9 | 5.2 | 0.00 | 0.00 | 0.00 | 41 | 1014.4 |
| 20260507084005 | 78 | 216 | 0.9 | 5.2 | 0.00 | 0.00 | 0.00 | 42 | 1014.3 |
| 20260507083804 | 78 | 229 | 1.7 | 5.2 | 0.00 | 0.00 | 0.00 | 41 | 1014.2 |
| 20260507083605 | 78 | 233 | 1.7 | 5.2 | 0.00 | 0.00 | 0.00 | 42 | 1014.4 |
| 20260507083404 | 78 | 236 | 0.9 | 5.2 | 0.00 | 0.00 | 0.00 | 41 | 1014.2 |
| 20260507083204 | 78 | 247 | 0.9 | 5.2 | 0.00 | 0.00 | 0.00 | 41 | 1014.2 |